Norwood, MA

6:50 PM EST on November 18, 2017 (GMT -0500)
Norwood Memorial

Weather History for KOWD - July, 2013

Change the Weather History Date:

Sunday, July 7, 2013

  Actual Average Record
Temperature  
Mean Temperature 78 °F -  
Max Temperature 93 °F 80 °F 93 °F (2010)
Min Temperature 66 °F 57 °F 48 °F (2001)
Cooling Degree Days 14    
Growing Degree Days 28 (Base 50)    
Moisture  
Dew Point 72 °F    
Average Humidity 86    
Maximum Humidity 100    
Minimum Humidity 52    
Precipitation  
Precipitation 0.06 in - - ()
Sea Level Pressure  
Sea Level Pressure 29.97 in    
Wind  
Wind Speed 1 mph (WSW)    
Max Wind Speed 9 mph    
Max Gust Speed 18 mph    
Visibility 8 miles    
Events Rain , Thunderstorm    
Averages and records for this station are not official NWS values.
T = Trace of Precipitation, MM = Missing Value Source: NWS Daily Summary

Daily Weather History Graph

Daily Weather History Graph

Search for Another Location

Airport or City:

Trip Planner

Search our weather history database for the weather conditions in past years. The results will help you decide how hot, cold, wet, or windy it might be!

Date:

Astronomy

Jul. 07, 2013 Rise Set
Actual Time 5:15 AM EDT 8:23 PM EDT
Civil Twilight 4:41 AM EDT 8:57 PM EDT
Nautical Twilight 3:58 AM EDT 9:40 PM EDT
Astronomical Twilight 3:06 AM EDT 10:32 PM EDT
Moon 4:50 AM EDT (7/7) 7:43 PM EDT (7/7)
Length of Visible Light 16h 15m
Length of Day
15h 07m
Waning Crescent, 0% of the Moon is Illuminated
Jul 7
Waning Crescent
Jul 8
New
Jul 15
First Quarter
Jul 22
Full
Jul 29
Last Quarter

Hourly Weather History & Observations

Time (EDT) Temp. Heat Index Dew Point Humidity Pressure Visibility Wind Dir Wind Speed Gust Speed Precip Events Conditions
12:53 AM 71.1 °F - 71.1 °F 100% 30.02 in 10.0 mi Calm Calm - N/A   Clear
1:53 AM 71.1 °F - 70.0 °F 96% 30.02 in 10.0 mi Calm Calm - N/A   Clear
2:53 AM 69.1 °F - 69.1 °F 100% 30.01 in 7.0 mi Calm Calm - N/A   Clear
3:53 AM 68.0 °F - 68.0 °F 100% 30.00 in 9.0 mi Calm Calm - N/A   Clear
4:53 AM 68.0 °F - 68.0 °F 100% 30.00 in 1.8 mi Calm Calm - N/A   Clear
4:57 AM 66.2 °F - 66.2 °F 100% 30.00 in 0.8 mi Calm Calm - N/A   Mist
5:06 AM 68.0 °F - 68.0 °F 100% 30.00 in 1.2 mi Calm Calm - N/A   Partly Cloudy
5:17 AM 68.0 °F - 68.0 °F 100% 30.00 in 0.8 mi Calm Calm - N/A   Mist
5:20 AM 68.0 °F - 68.0 °F 100% 30.00 in 1.2 mi Calm Calm - N/A   Partly Cloudy
5:22 AM 68.0 °F - 68.0 °F 100% 30.00 in 4.0 mi Calm Calm - N/A   Partly Cloudy
5:53 AM 69.1 °F - 69.1 °F 100% 30.01 in 6.0 mi Calm Calm - N/A   Clear
6:53 AM 75.0 °F - 73.0 °F 94% 30.01 in 10.0 mi Calm Calm - N/A   Clear
7:53 AM 80.1 °F 83.6 °F 71.1 °F 74% 30.01 in 10.0 mi West 6.9 mph - N/A   Clear
8:53 AM 82.9 °F 87.0 °F 70.0 °F 65% 30.01 in 10.0 mi West 8.1 mph - N/A   Clear
9:53 AM 86.0 °F 90.7 °F 70.0 °F 59% 30.01 in 10.0 mi WSW 6.9 mph - N/A   Clear
10:53 AM 89.1 °F 95.0 °F 71.1 °F 55% 29.99 in 10.0 mi WSW 9.2 mph - N/A   Clear
11:53 AM 89.1 °F 95.0 °F 71.1 °F 55% 29.99 in 10.0 mi West 9.2 mph - N/A   Clear
12:53 PM 90.0 °F 96.9 °F 72.0 °F 55% 29.98 in 10.0 mi Calm Calm - N/A   Partly Cloudy
1:53 PM 91.0 °F 97.6 °F 71.1 °F 52% 29.96 in 10.0 mi Calm Calm - N/A   Partly Cloudy
2:53 PM 91.9 °F 100.7 °F 73.0 °F 54% 29.93 in 10.0 mi Calm Calm - N/A   Partly Cloudy
3:53 PM 90.0 °F 97.9 °F 73.0 °F 57% 29.93 in 10.0 mi WSW 5.8 mph - N/A   Partly Cloudy
4:53 PM 87.1 °F 96.3 °F 75.0 °F 67% 29.93 in 10.0 mi WSW 9.2 mph 18.4 mph N/A   Clear
5:24 PM 84.2 °F 90.9 °F 73.4 °F 70% 29.94 in 8.0 mi SW 8.1 mph - 0.01 in Rain , Thunderstorm Light Thunderstorms and Rain
5:53 PM 78.1 °F - 77.0 °F 96% 29.93 in 10.0 mi South 4.6 mph - 0.06 in Thunderstorm Overcast
6:11 PM 78.8 °F - 78.8 °F 100% 29.92 in 10.0 mi Calm Calm - N/A   Mostly Cloudy
6:53 PM 78.1 °F - 78.1 °F 100% 29.90 in 7.0 mi Calm Calm - N/A   Clear
7:53 PM 79.0 °F - 78.1 °F 97% 29.92 in 10.0 mi Calm Calm - N/A   Clear
8:53 PM 78.1 °F - 78.1 °F 100% 29.93 in 9.0 mi Calm Calm - N/A   Clear
9:53 PM 75.9 °F - 75.9 °F 100% 29.94 in 9.0 mi Calm Calm - N/A   Clear
10:53 PM 75.0 °F - 75.0 °F 100% 29.94 in 2.5 mi Calm Calm - N/A   Clear
11:00 PM 75.2 °F - 75.2 °F 100% 29.93 in 5.0 mi Calm Calm - N/A   Clear
11:53 PM 75.0 °F - 75.0 °F 100% 29.93 in 8.0 mi Calm Calm - N/A   Clear